Home   Weather   Plzen   Past weeks

Flag for Czech Republic Past Weather in Plzen, Czech Republic — Yesterday and Last 2 Weeks

Now
69 °F

Partly sunny.


Feels Like: 69 °F
Forecast: 57 / 80 °F
Wind: 8 mph from West

Location: Kocelovice

Current Time: Jul 28, 2017 at 3:16:38 pm

Latest Report: Jul 28, 2017 at 2:00 pm


Visibility: 44 mi

Pressure: 29.87 "Hg

Humidity: 55%

Dew Point: 52 °F

Location of PlzenLocation

Past Weather in Plzen — Graph

°F

Plzen Temperature Yesterday

Maximum temperature yesterday: 67 °F (at 12:00 pm)
Minimum temperature yesterday: 54 °F (at 2:00 am)
Average temperature yesterday: 60 °F

High & Low Weather Summary for the Past Weeks

 TemperatureHumidityPressure
High84 °F (Jul 19, 5:00 pm)100% (Jul 16, 2:00 am)30.28 "Hg (Jul 16, 2:00 am)
Low49 °F (Jul 16, 6:00 am)37% (Jul 21, 6:00 pm)29.59 "Hg (Jul 26, 10:00 am)
Average64 °F73%29.93 "Hg
* Reported Jul 13 2:00 pm — Jul 28 2:00 pm, Plzen. Weather by CustomWeather, © 2017

Note: Actual official high and low records may vary slightly from our data, if they occured in-between our weather recording intervals... More about our weather records

Advertising

Plzen Weather History for the Previous 24 Hours

Scroll right to see more
 ConditionsComfort  
Time TempWeatherWind HumidityBarometerVisibility
2:00 pm
Fri, Jul 28
69 °FPartly sunny.8 mph55%29.87 "Hg43 mi
1:00 pm68 °FPartly sunny.8 mph54%29.87 "Hg43 mi
12:00 pm67 °FScattered clouds.9 mph61%29.86 "Hg43 mi
11:00 am65 °FScattered clouds.10 mph62%29.85 "Hg40 mi
10:00 am65 °FPartly sunny.9 mph72%29.85 "Hg37 mi
9:00 am63 °FPartly sunny.6 mph87%29.85 "Hg25 mi
8:00 am61 °FPartly sunny.3 mph93%29.84 "Hg12 mi
7:00 am58 °FRain showers. Cloudy.N/A99%29.84 "Hg2 mi
6:00 am56 °FDuststorm.2 mph99%29.84 "Hg0 mi
5:00 am58 °FFog.2 mph99%29.83 "Hg5 mi
4:00 am59 °FCool.2 mph98%29.82 "Hg9 mi
3:00 am59 °FLight rain. Overcast.2 mph95%29.83 "Hg11 mi
2:00 am59 °FCool.1 mph97%29.83 "Hg12 mi
1:00 am59 °FCool.2 mph96%29.83 "Hg12 mi
12:00 am59 °FCool.1 mph97%29.83 "Hg12 mi
11:00 pm
Thu, Jul 27
58 °FCool.1 mph97%29.83 "Hg12 mi
10:00 pm60 °FOvercast.2 mph97%29.82 "Hg12 mi
9:00 pm61 °FOvercast.5 mph90%29.82 "Hg16 mi
8:00 pm62 °FOvercast.5 mph87%29.82 "Hg19 mi
7:00 pm62 °FOvercast.6 mph87%29.80 "Hg37 mi
6:00 pm63 °FOvercast.5 mph81%29.80 "Hg34 mi
5:00 pm64 °FOvercast.5 mph76%29.80 "Hg28 mi
4:00 pm64 °FOvercast.7 mph75%29.80 "Hg25 mi
3:00 pm65 °FOvercast.8 mph73%29.80 "Hg22 mi
Weather by CustomWeather, © 2017

See weather overviewHow to use our weather pages